Date String (YYYY-MM-DD hh:mm:ss) UTC,Instrument flags,Ambient pressure (hPa),Sample flow (lpm),Bypass flow (lpm),Sample temperature (°C),Ambient temperature (°C),ASC tube jacket temperature (°C),LED temperature (°C),Box temperature (°C),Sample RH (%),Span deviation,Mass concentration (μg/m³),Mass concentration (μg/m³),Mass concentration (μg/m³)
DateTimeUTC,F1_M11,P_M11,Q1_M11,Q2_M11,T1_M11,T2_M11,T3_M11,T4_M11,T5_M11,U1_M11,ZSPAN_M11,X0_M11,X2_M11,X1_M11
2021-08-25 15:00:00,,0834.4,5.00,0.00,30.2,29.3,00.0,39.2,32.0,32.1,0001.6,0025.34,0016.12,0014.79
2021-08-25 15:01:00,,0834.4,5.00,0.00,30.2,29.3,00.0,39.2,32.0,32.1,0001.7,0026.15,0016.18,0014.81
2021-08-25 15:02:00,,0834.4,5.00,0.00,30.2,27.9,00.0,39.2,31.7,32.2,0001.6,0025.96,0016.21,0014.82
2021-08-25 15:03:00,,0834.4,5.00,0.00,30.0,26.5,00.0,39.2,31.3,32.4,0001.7,0025.67,0016.23,0014.82
2021-08-25 15:04:00,,0834.3,5.00,0.00,29.9,26.4,00.0,39.1,31.2,32.4,0001.7,0025.28,0016.20,0014.80
2021-08-25 15:05:00,,0834.4,5.00,0.00,29.8,26.8,00.0,39.1,31.3,32.3,0001.6,0025.55,0016.21,0014.81
2021-08-25 15:06:00,,0834.3,5.01,0.00,29.8,27.3,00.0,39.1,31.3,32.5,0001.9,0025.79,0016.22,0014.82
2021-08-25 15:07:00,,0834.4,4.99,0.00,29.8,27.7,00.0,39.0,31.4,32.7,0002.0,0026.25,0016.24,0014.85
2021-08-25 15:08:00,,0834.4,5.01,0.00,29.8,28.0,00.0,39.0,31.5,33.0,0001.8,0026.25,0016.25,0014.85
2021-08-25 15:09:00,,0834.3,5.00,0.00,29.8,28.2,00.0,39.0,31.5,32.9,0001.8,0026.46,0016.25,0014.85
2021-08-25 15:10:00,,0834.3,5.01,0.00,29.9,28.4,00.0,39.0,31.6,32.9,0001.8,0026.28,0016.24,0014.84
2021-08-25 15:11:00,,0834.4,5.00,0.00,29.9,28.6,00.0,39.0,31.7,32.9,0001.6,0025.60,0016.19,0014.83
2021-08-25 15:12:00,,0834.3,4.99,0.00,29.9,28.7,00.0,39.0,31.7,32.9,0001.7,0025.13,0016.10,0014.81
2021-08-25 15:13:00,,0834.3,5.01,0.00,29.9,28.9,00.0,39.0,31.7,32.7,0001.7,0025.13,0016.15,0014.86
2021-08-25 15:14:00,,0834.3,4.98,0.00,30.0,29.0,00.0,39.0,31.7,32.3,0001.6,0025.05,0016.20,0014.94
2021-08-25 15:15:00,,0834.3,5.00,0.00,30.0,29.0,00.0,39.0,31.8,32.3,0001.5,0025.17,0016.29,0015.02
2021-08-25 15:16:00,,0834.3,5.00,0.00,30.0,29.1,00.0,39.1,31.9,32.4,0001.6,0024.80,0016.31,0015.08
2021-08-25 15:17:00,,0834.3,5.00,0.00,30.1,29.2,00.0,39.1,31.9,32.4,0001.6,0024.04,0016.31,0015.12
2021-08-25 15:18:00,,0834.3,4.98,0.00,30.1,29.2,00.0,39.1,32.0,32.0,0001.7,0023.62,0016.34,0015.16
2021-08-25 15:19:00,,0834.3,4.99,0.00,30.2,29.2,00.0,39.1,32.0,32.3,0002.0,0024.55,0016.44,0015.23
2021-08-25 15:20:00,,0834.3,5.02,0.00,30.1,28.1,00.0,39.1,31.7,32.1,0002.0,0024.82,0016.54,0015.32
2021-08-25 15:21:00,,0834.3,4.98,0.00,30.0,26.6,00.0,39.1,31.3,32.4,0002.0,0024.85,0016.62,0015.41
2021-08-25 15:22:00,,0834.2,5.00,0.00,29.9,26.4,00.0,39.1,31.2,32.7,0002.1,0025.25,0016.72,0015.49
2021-08-25 15:23:00,,0834.3,5.01,0.00,29.8,26.7,00.0,39.0,31.3,32.6,0002.0,0025.02,0016.84,0015.58
2021-08-25 15:24:00,,0834.3,5.01,0.00,29.8,27.2,00.0,39.0,31.3,33.0,0001.9,0025.83,0016.88,0015.60
2021-08-25 15:25:00,,0834.3,4.99,0.00,29.8,27.6,00.0,39.0,31.4,32.9,0001.9,0026.65,0016.87,0015.57
2021-08-25 15:26:00,,0834.3,5.00,0.00,29.8,27.9,00.0,38.9,31.5,32.8,0001.9,0026.93,0016.87,0015.57
2021-08-25 15:27:00,,0834.3,5.00,0.00,29.8,28.2,00.0,38.9,31.5,32.0,0001.8,0027.23,0016.87,0015.56
2021-08-25 15:28:00,,0834.3,5.00,0.00,29.8,28.4,00.0,38.9,31.6,31.8,0001.7,0027.58,0016.98,0015.61
2021-08-25 15:29:00,,0834.3,5.00,0.00,29.8,28.6,00.0,38.9,31.6,32.0,0001.5,0027.74,0017.02,0015.64
2021-08-25 15:30:00,,0834.3,5.01,0.00,29.9,28.7,00.0,38.9,31.7,32.9,0001.4,0027.13,0016.99,0015.64
2021-08-25 15:31:00,,0834.3,4.99,0.00,29.9,28.8,00.0,39.0,31.7,33.2,0001.5,0026.15,0016.98,0015.63
2021-08-25 15:32:00,,0834.3,5.02,0.00,29.9,28.9,00.0,39.0,31.7,32.9,0001.5,0026.66,0017.02,0015.62
2021-08-25 15:33:00,,0834.3,4.98,0.00,30.0,29.0,00.0,39.0,31.7,33.0,0001.5,0027.12,0017.03,0015.62
2021-08-25 15:34:00,,0834.3,5.01,0.00,30.0,29.1,00.0,39.0,31.8,33.0,0001.4,0027.46,0017.01,0015.60
2021-08-25 15:35:00,,0834.3,5.00,0.00,30.0,28.7,00.0,39.0,31.8,33.0,0001.7,0026.67,0016.99,0015.60
2021-08-25 15:36:00,,0834.3,5.00,0.00,29.9,27.1,00.0,39.0,31.3,33.1,0001.8,0026.35,0016.98,0015.60
2021-08-25 15:37:00,,0834.2,5.01,0.00,29.8,26.3,00.0,39.0,31.0,33.3,0001.9,0026.05,0016.97,0015.62
2021-08-25 15:38:00,,0834.2,4.99,0.00,29.7,26.5,00.0,39.0,31.1,33.8,0001.9,0025.55,0017.00,0015.61
2021-08-25 15:39:00,,0834.3,4.99,0.00,29.6,26.9,00.0,38.9,31.2,34.1,0002.1,0025.29,0016.89,0015.53
2021-08-25 15:40:00,,0834.3,5.01,0.00,29.6,27.3,00.0,38.9,31.2,33.9,0002.2,0025.38,0016.84,0015.48
2021-08-25 15:41:00,,0834.3,4.99,0.00,29.6,27.7,00.0,38.8,31.3,33.3,0002.0,0025.20,0016.80,0015.44
2021-08-25 15:42:00,,0834.3,5.01,0.00,29.7,28.0,00.0,38.8,31.4,33.4,0002.1,0025.54,0016.76,0015.43
2021-08-25 15:43:00,,0834.2,4.99,0.00,29.7,28.2,00.0,38.8,31.5,33.3,0002.1,0026.09,0016.65,0015.41
2021-08-25 15:44:00,,0834.1,5.02,0.00,29.7,28.4,00.0,38.8,31.5,32.7,0002.1,0025.69,0016.58,0015.39
2021-08-25 15:45:00,,0834.2,5.00,0.00,29.8,28.6,00.0,38.8,31.6,32.6,0002.2,0026.37,0016.58,0015.39
2021-08-25 15:46:00,,0834.1,5.00,0.00,29.8,28.7,00.0,38.8,31.6,32.4,0002.2,0026.88,0016.52,0015.35
2021-08-25 15:47:00,,0834.2,5.00,0.00,29.8,28.8,00.0,38.9,31.7,32.6,0002.1,0026.76,0016.52,0015.33
2021-08-25 15:48:00,,0834.2,4.99,0.00,29.9,28.9,00.0,38.9,31.7,32.5,0002.0,0027.10,0016.49,0015.27
2021-08-25 15:49:00,,0834.2,5.00,0.00,29.9,28.9,00.0,38.9,31.7,32.7,0002.0,0028.15,0016.41,0015.25
2021-08-25 15:50:00,,0834.2,5.01,0.00,29.9,27.6,00.0,38.9,31.4,32.9,0001.8,0028.25,0016.41,0015.28
2021-08-25 15:51:00,,0834.1,5.01,0.00,29.7,26.3,00.0,38.9,31.1,32.8,0001.8,0028.15,0016.45,0015.28
2021-08-25 15:52:00,,0834.1,4.98,0.00,29.6,26.2,00.0,38.9,31.0,33.1,0002.0,0028.25,0016.43,0015.28
2021-08-25 15:53:00,,0834.1,5.00,0.00,29.6,26.6,00.0,38.8,31.1,33.5,0002.1,0028.11,0016.40,0015.25
2021-08-25 15:54:00,,0834.1,5.01,0.00,29.5,27.1,00.0,38.8,31.1,33.3,0001.9,0027.22,0016.41,0015.23
2021-08-25 15:55:00,,0834.1,4.99,0.00,29.6,27.5,00.0,38.7,31.2,33.4,0001.9,0026.64,0016.43,0015.19
2021-08-25 15:56:00,,0834.1,5.01,0.00,29.6,27.8,00.0,38.7,31.3,32.9,0001.9,0027.25,0016.42,0015.17
2021-08-25 15:57:00,,0834.2,5.00,0.00,29.6,28.1,00.0,38.7,31.4,32.9,0001.7,0026.87,0016.42,0015.14
2021-08-25 15:58:00,,0834.2,4.99,0.00,29.6,28.3,00.0,38.7,31.4,32.8,0001.6,0026.61,0016.46,0015.18
2021-08-25 15:59:00,,0834.2,5.00,0.00,29.7,28.5,00.0,38.7,31.5,32.9,0001.7,0026.22,0016.50,0015.21
